Location: Berbisdorf
(50.7638°N, 12.9442°E)
Time: 02:24:14
(UTC+00:00)

BREEZE-M DEB (TANK) - Pass Details

Date: 08 October 2020
Orbit: 333 x 12040 km, 49.7° (Epoch: 19 October)

Event Time Altitude Azimuth Distance (km) Brightness Sun altitude
Rises 02:32:41 0° 194° (SSW) 14,506 9.0 -26.7°
Reaches altitude 10° 02:45:21 10° 192° (SSW) 14,666 9.0 -24.8°
Maximum altitude 04:17:14 63° 132° (SE) 9,537 8.5 -10.8°
Drops below altitude 10° 04:51:47 10° 65° (ENE) 7,196 8.9 -5.3°
Sets 04:55:16 0° 62° (ENE) 7,438 9.0 -4.8°
